Flag for Brazil Weather past 2 weeks in Porto Alegre, Rio Grande do Sul, Brazil

Now
70 °F

Passing clouds.


Feels Like: 70 °F
Forecast: 68 / 84 °F
Wind: 6 mph from East

Location: Porto Alegre Aero-Porto

Current Time: Feb 1, 2015 at 5:13:19 AM

Latest Report: Feb 1, 2015 at 5:00 AM


Visibility: N/A

Pressure: 29.98 "Hg

Humidity: 94%

Dew point: 68 °F

Location of Porto AlegreLocation

Historic Weather in Porto Alegre — Graph

°F

Porto Alegre temperature yesterday

Maximum temperature yesterday: 81 °F (at 4:00 PM)
Minimum temperature yesterday: 66 °F (at 2:00 AM)
Average temperature yesterday: 74 °F

Past Weeks' High & Low Weather Summary

 TemperatureHumidityPressure
High95 °F (Jan 27, 3:00 PM)100% (Jan 18, 3:00 AM)30.18 "Hg (Jan 18, 3:00 AM)
Low41 °F (Jan 24, 11:00 PM)43% (Jan 25, 6:00 PM)29.71 "Hg (Jan 28, 3:00 PM)
Average77 °F76%29.93 "Hg
* Reported Jan 17 3:00 AM — Feb 1 3:00 AM, Porto Alegre, Weather by CustomWeather, © 2014

Note: Actual official high and low records may vary slightly from our data, if they occured in-between our weather recording intervals... More about our weather records

Advertising

Porto Alegre weather history for previous 24 hours

 ConditionsComfort  
Time TempWeatherWind HumidityBarometerVisibility
3:00 AM
Feb 1
72 °FPassing clouds.8 mph88%29.98 "HgN/A
2:00 AM72 °FPassing clouds.9 mph88%29.98 "HgN/A
1:00 AM72 °FPassing clouds.8 mph88%30.01 "HgN/A
12:00 AM72 °FPassing clouds.10 mph88%30.01 "HgN/A
11:00 PM
Jan 31
72 °FPassing clouds.10 mph88%30.01 "HgN/A
10:00 PM72 °FPassing clouds.10 mph94%30.01 "HgN/A
9:00 PM72 °FLight rain. Partly cloudy.16 mph88%30.01 "Hg5 mi
8:00 PM75 °FPartly sunny.20 mph74%29.98 "HgN/A
7:00 PM75 °FMore clouds than sun.15 mph78%29.98 "HgN/A
6:00 PM77 °FPartly sunny.18 mph74%30.01 "HgN/A
5:00 PM79 °FBroken clouds.13 mph70%30.01 "HgN/A
4:00 PM81 °FBroken clouds.18 mph66%30.01 "HgN/A
3:00 PM79 °FBroken clouds.14 mph65%30.04 "HgN/A
2:00 PM79 °FBroken clouds.16 mph61%30.07 "HgN/A
1:00 PM79 °FPartly sunny.13 mph61%30.07 "HgN/A
12:00 PM77 °FPartly sunny.13 mph65%30.09 "HgN/A
11:00 AM79 °FSunny.13 mph65%30.09 "Hg10 mi
10:00 AM75 °FSunny.13 mph69%30.09 "Hg10 mi
9:00 AM73 °FSunny.12 mph74%30.09 "Hg10 mi
8:00 AM72 °FSunny.10 mph73%30.07 "Hg10 mi
7:00 AM70 °FSunny.9 mph78%30.07 "Hg10 mi
6:00 AM70 °FClear.9 mph78%30.04 "Hg10 mi
5:00 AM70 °FClear.8 mph78%30.04 "Hg10 mi
Weather by CustomWeather, © 2014

See weather overviewHow to use our weather pages